Вернуться в каталог

STARLINK-34337

АктивенСвязьVLEO
NORAD 64223·PAYLOAD·🇺🇸 United States

Запущен May 31, 2025 с Vandenberg Space Force Base

Loading…

Ближайшие Пролёты (ближайшие 24 часа)

TLE

СвежийSource: CelesTrak SupGP

Эпоха: Sep 15, 2026, 04:02 UTC

1 64223C 25117W   26258.16854167 -.00044108  00000+0 -13032-2 0  2581
2 64223  53.1579 236.4610 0001402  88.7319  88.0101 15.34410906    16

Отслеживайте STARLINK-34337 в реальном времени с AllMySat

Download on the App Store